Starlink 3344

operational
NORAD ID: 51110 Int'l Des: 2022-005 Owner: SPXS Country: US Constellation: starlink
LEOCIRCULAR

About Starlink 3344

Description loading...

Live Position

Loading 3D Globe...

Upcoming Passes

Altitude History

Altitude vs Time

uPlot chart will show altitude changes over time

Two-Line Element Set

1 51110U 22005G 26067.04303632 .00001231 00000-0 95392-4 0 9998
2 51110 53.2182 296.4914 0001345 86.1394 273.9752 15.08847600228635
Epoch: Mar 8, 2026 • Age: 21 hours

Current Status

Altitude 557.9 km
Velocity 7.58 km/s
Sub-Earth Point -50.04°S, 50.29°E
Launch Date Jan 19, 2022
Age 4.1 years
Type internet

Technical Details

Classification Payload
Mass 297.00 kg
Dry Mass 275.00 kg
Total Mass 297.00 kg
Length 0.20 m
Diameter 2.80 m
Span 9.00 m
Shape Box + pan
Manufacturer SPXS
Bus Type Starlink
Phase Status In Orbit
Owner/State SPXS/US

Large Constellations

Loading constellations...